Year,Month,Day,Hour,Minute,Value (Times are PST for temperature in C)
2018,08,04,00,00,17.70
2018,08,04,00,01,17.70
2018,08,04,00,02,17.70
2018,08,04,00,03,17.70
2018,08,04,00,04,17.80
2018,08,04,00,05,17.80
2018,08,04,00,06,17.80
2018,08,04,00,07,17.80
2018,08,04,00,08,17.80
2018,08,04,00,09,17.90
2018,08,04,00,10,17.90
2018,08,04,00,11,17.90
2018,08,04,00,12,17.90
2018,08,04,00,13,17.90
2018,08,04,00,14,17.90
2018,08,04,00,15,17.90
2018,08,04,00,16,17.90
2018,08,04,00,17,17.90
2018,08,04,00,18,17.90
2018,08,04,00,19,17.90
2018,08,04,00,20,17.90
2018,08,04,00,21,17.90
2018,08,04,00,22,17.90
2018,08,04,00,23,17.90
2018,08,04,00,24,17.90
2018,08,04,00,25,17.90
2018,08,04,00,26,17.80
2018,08,04,00,27,17.80
2018,08,04,00,28,17.80
2018,08,04,00,29,17.80
2018,08,04,00,30,17.80
2018,08,04,00,31,17.80
2018,08,04,00,32,17.80
2018,08,04,00,33,17.70
2018,08,04,00,34,17.70
2018,08,04,00,35,17.70
2018,08,04,00,36,17.70
2018,08,04,00,37,17.60
2018,08,04,00,38,17.60
2018,08,04,00,39,17.60
2018,08,04,00,40,17.60
2018,08,04,00,41,17.60
2018,08,04,00,42,17.50
2018,08,04,00,43,17.50
2018,08,04,00,44,17.50
2018,08,04,00,45,17.40
2018,08,04,00,46,17.40
2018,08,04,00,47,17.40
2018,08,04,00,48,17.40
2018,08,04,00,49,17.40
2018,08,04,00,50,17.40
2018,08,04,00,51,17.40
2018,08,04,00,52,17.30
2018,08,04,00,53,17.30
2018,08,04,00,54,17.30
2018,08,04,00,55,17.30
2018,08,04,00,56,17.30
2018,08,04,00,57,17.40
2018,08,04,00,58,17.40
2018,08,04,00,59,17.40
2018,08,04,01,00,17.40
2018,08,04,01,01,17.40
2018,08,04,01,02,17.40
2018,08,04,01,03,17.40
2018,08,04,01,04,17.40
2018,08,04,01,05,17.40
2018,08,04,01,06,17.30
2018,08,04,01,07,17.30
2018,08,04,01,08,17.30
2018,08,04,01,09,17.20
2018,08,04,01,10,17.10
2018,08,04,01,11,17.10
2018,08,04,01,12,17.00
2018,08,04,01,13,16.90
2018,08,04,01,14,16.90
2018,08,04,01,15,16.80
2018,08,04,01,16,16.80
2018,08,04,01,17,16.70
2018,08,04,01,18,16.60
2018,08,04,01,19,16.60
2018,08,04,01,20,16.60
2018,08,04,01,21,16.50
2018,08,04,01,22,16.50
2018,08,04,01,23,16.50
2018,08,04,01,24,16.50
2018,08,04,01,25,16.40
2018,08,04,01,26,16.40
2018,08,04,01,27,16.40
2018,08,04,01,28,16.40
2018,08,04,01,29,16.40
2018,08,04,01,30,16.40
2018,08,04,01,31,16.40
2018,08,04,01,32,16.40
2018,08,04,01,33,16.40
2018,08,04,01,34,16.40
2018,08,04,01,35,16.40
2018,08,04,01,36,16.40
2018,08,04,01,37,16.40
2018,08,04,01,38,16.40
2018,08,04,01,39,16.30
2018,08,04,01,40,16.30
2018,08,04,01,41,16.30
2018,08,04,01,42,16.30
2018,08,04,01,43,16.30
2018,08,04,01,44,16.30
2018,08,04,01,45,16.30
2018,08,04,01,46,16.30
2018,08,04,01,47,16.30
2018,08,04,01,48,16.30
2018,08,04,01,49,16.30
2018,08,04,01,50,16.30
2018,08,04,01,51,16.30
2018,08,04,01,52,16.30
2018,08,04,01,53,16.40
2018,08,04,01,54,16.40
2018,08,04,01,55,16.40
2018,08,04,01,56,16.40
2018,08,04,01,57,16.40
2018,08,04,01,58,16.50
2018,08,04,01,59,16.50
2018,08,04,02,00,16.50
2018,08,04,02,01,16.50
2018,08,04,02,02,16.60
2018,08,04,02,03,16.60
2018,08,04,02,04,16.60
2018,08,04,02,05,16.60
2018,08,04,02,06,16.60
2018,08,04,02,07,16.60
2018,08,04,02,08,16.60
2018,08,04,02,09,16.60
2018,08,04,02,10,16.60
2018,08,04,02,11,16.60
2018,08,04,02,12,16.60
2018,08,04,02,13,16.60
2018,08,04,02,14,16.60
2018,08,04,02,15,16.60
2018,08,04,02,16,16.60
2018,08,04,02,17,16.60
2018,08,04,02,18,16.60
2018,08,04,02,19,16.60
2018,08,04,02,20,16.70
2018,08,04,02,21,16.70
2018,08,04,02,22,16.70
2018,08,04,02,23,16.70
2018,08,04,02,24,16.70
2018,08,04,02,25,16.70
2018,08,04,02,26,16.70
2018,08,04,02,27,16.80
2018,08,04,02,28,16.80
2018,08,04,02,29,16.80
2018,08,04,02,30,16.80
2018,08,04,02,31,16.80
2018,08,04,02,32,16.80
2018,08,04,02,33,16.80
2018,08,04,02,34,16.90
2018,08,04,02,35,16.90
2018,08,04,02,36,16.90
2018,08,04,02,37,17.00
2018,08,04,02,38,17.00
2018,08,04,02,39,17.10
2018,08,04,02,40,17.10
2018,08,04,02,41,17.10
2018,08,04,02,42,17.10
2018,08,04,02,43,17.10
2018,08,04,02,44,17.10
2018,08,04,02,45,17.10
2018,08,04,02,46,17.10
2018,08,04,02,47,17.10
2018,08,04,02,48,17.10
2018,08,04,02,49,17.10
2018,08,04,02,50,17.10
2018,08,04,02,51,17.10
2018,08,04,02,52,17.10
2018,08,04,02,53,17.10
2018,08,04,02,54,17.10
2018,08,04,02,55,17.10
2018,08,04,02,56,17.00
2018,08,04,02,57,17.00
2018,08,04,02,58,16.90
2018,08,04,02,59,16.90
2018,08,04,03,00,16.80
2018,08,04,03,01,16.70
2018,08,04,03,02,16.70
2018,08,04,03,03,16.60
2018,08,04,03,04,16.60
2018,08,04,03,05,16.50
2018,08,04,03,06,16.40
2018,08,04,03,07,16.40
2018,08,04,03,08,16.30
2018,08,04,03,09,16.30
2018,08,04,03,10,16.20
2018,08,04,03,11,16.20
2018,08,04,03,12,16.10
2018,08,04,03,13,16.10
2018,08,04,03,14,16.00
2018,08,04,03,15,16.00
2018,08,04,03,16,16.00
2018,08,04,03,17,15.90
2018,08,04,03,18,15.90
2018,08,04,03,19,15.80
2018,08,04,03,20,15.80
2018,08,04,03,21,15.70
2018,08,04,03,22,15.70
2018,08,04,03,23,15.70
2018,08,04,03,24,15.70
2018,08,04,03,25,15.70
2018,08,04,03,26,15.60
2018,08,04,03,27,15.60
2018,08,04,03,28,15.60
2018,08,04,03,29,15.60
2018,08,04,03,30,15.60
2018,08,04,03,31,15.50
2018,08,04,03,32,15.50
2018,08,04,03,33,15.50
2018,08,04,03,34,15.50
2018,08,04,03,35,15.50
2018,08,04,03,36,15.50
2018,08,04,03,37,15.50
2018,08,04,03,38,15.50
2018,08,04,03,39,15.50
2018,08,04,03,40,15.50
2018,08,04,03,41,15.50
2018,08,04,03,42,15.50
2018,08,04,03,43,15.60
2018,08,04,03,44,15.60
2018,08,04,03,45,15.60
2018,08,04,03,46,15.60
2018,08,04,03,47,15.60
2018,08,04,03,48,15.60
2018,08,04,03,49,15.50
2018,08,04,03,50,15.50
2018,08,04,03,51,15.40
2018,08,04,03,52,15.40
2018,08,04,03,53,15.40
2018,08,04,03,54,15.40
2018,08,04,03,55,15.40
2018,08,04,03,56,15.30
2018,08,04,03,57,15.30
2018,08,04,03,58,15.30
2018,08,04,03,59,15.30
2018,08,04,04,00,15.30
2018,08,04,04,01,15.30
2018,08,04,04,02,15.40
2018,08,04,04,03,15.40
2018,08,04,04,04,15.40
2018,08,04,04,05,15.40
2018,08,04,04,06,15.40
2018,08,04,04,07,15.40
2018,08,04,04,08,15.40
2018,08,04,04,09,15.40
2018,08,04,04,10,15.40
2018,08,04,04,11,15.40
2018,08,04,04,12,15.40
2018,08,04,04,13,15.40
2018,08,04,04,14,15.40
2018,08,04,04,15,15.40
2018,08,04,04,16,15.30
2018,08,04,04,17,15.30
2018,08,04,04,18,15.30
2018,08,04,04,19,15.30
2018,08,04,04,20,15.30
2018,08,04,04,21,15.30
2018,08,04,04,22,15.20
2018,08,04,04,23,15.20
2018,08,04,04,24,15.20
2018,08,04,04,25,15.20
2018,08,04,04,26,15.20
2018,08,04,04,27,15.20
2018,08,04,04,28,15.20
2018,08,04,04,29,15.20
2018,08,04,04,30,15.20
2018,08,04,04,31,15.20
2018,08,04,04,32,15.10
2018,08,04,04,33,15.10
2018,08,04,04,34,15.00
2018,08,04,04,35,15.00
2018,08,04,04,36,15.00
2018,08,04,04,37,15.00
2018,08,04,04,38,15.00
2018,08,04,04,39,15.00
2018,08,04,04,40,15.00
2018,08,04,04,41,15.00
2018,08,04,04,42,15.00
2018,08,04,04,43,15.00
2018,08,04,04,44,15.00
2018,08,04,04,45,15.00
2018,08,04,04,46,15.00
2018,08,04,04,47,15.00
2018,08,04,04,48,15.00
2018,08,04,04,49,15.00
2018,08,04,04,50,15.00
2018,08,04,04,51,15.00
2018,08,04,04,52,14.90
2018,08,04,04,53,14.90
2018,08,04,04,54,14.90
2018,08,04,04,55,15.00
2018,08,04,04,56,15.00
2018,08,04,04,57,15.00
2018,08,04,04,58,15.00
2018,08,04,04,59,15.00
2018,08,04,05,00,15.00
2018,08,04,05,01,15.00
2018,08,04,05,02,15.00
2018,08,04,05,03,15.00
2018,08,04,05,04,15.00
2018,08,04,05,05,15.00
2018,08,04,05,06,15.00
2018,08,04,05,07,15.00
2018,08,04,05,08,15.00
2018,08,04,05,09,15.00
2018,08,04,05,10,15.00
2018,08,04,05,11,14.90
2018,08,04,05,12,14.90
2018,08,04,05,13,14.90
2018,08,04,05,14,14.90
2018,08,04,05,15,14.90
2018,08,04,05,16,14.90
2018,08,04,05,17,14.80
2018,08,04,05,18,14.80
2018,08,04,05,19,14.80
2018,08,04,05,20,14.80
2018,08,04,05,21,14.80
2018,08,04,05,22,14.80
2018,08,04,05,23,14.80
2018,08,04,05,24,14.80
2018,08,04,05,25,14.80
2018,08,04,05,26,14.80
2018,08,04,05,27,14.80
2018,08,04,05,28,14.80
2018,08,04,05,29,14.80
2018,08,04,05,30,14.80
2018,08,04,05,31,14.80
2018,08,04,05,32,14.80
2018,08,04,05,33,14.80
2018,08,04,05,34,14.80
2018,08,04,05,35,14.80
2018,08,04,05,36,14.80
2018,08,04,05,37,14.80
2018,08,04,05,38,14.80
2018,08,04,05,39,14.80
2018,08,04,05,40,14.80
2018,08,04,05,41,14.80
2018,08,04,05,42,14.80
2018,08,04,05,43,14.80
2018,08,04,05,44,14.80
2018,08,04,05,45,14.70
2018,08,04,05,46,14.70
2018,08,04,05,47,14.80
2018,08,04,05,48,14.80
2018,08,04,05,49,14.80
2018,08,04,05,50,14.90
2018,08,04,05,51,14.90
2018,08,04,05,52,14.90
2018,08,04,05,53,14.90
2018,08,04,05,54,15.00
2018,08,04,05,55,15.00
2018,08,04,05,56,15.00
2018,08,04,05,57,15.00
2018,08,04,05,58,15.00
2018,08,04,05,59,15.00
2018,08,04,06,00,15.00
2018,08,04,06,01,15.00
2018,08,04,06,02,15.00
2018,08,04,06,03,15.00
2018,08,04,06,04,15.00
2018,08,04,06,05,15.00
2018,08,04,06,06,15.00
2018,08,04,06,07,15.00
2018,08,04,06,08,15.00
2018,08,04,06,09,15.00
2018,08,04,06,10,15.00
2018,08,04,06,11,15.00
2018,08,04,06,12,15.00
2018,08,04,06,13,15.00
2018,08,04,06,14,15.00
2018,08,04,06,15,15.00
2018,08,04,06,16,15.00
2018,08,04,06,17,15.00
2018,08,04,06,18,15.00
2018,08,04,06,19,15.00
2018,08,04,06,20,15.00
2018,08,04,06,21,15.00
2018,08,04,06,22,15.10
2018,08,04,06,23,15.10
2018,08,04,06,24,15.20
2018,08,04,06,25,15.20
2018,08,04,06,26,15.20
2018,08,04,06,27,15.20
2018,08,04,06,28,15.20
2018,08,04,06,29,15.30
2018,08,04,06,30,15.30
2018,08,04,06,31,15.30
2018,08,04,06,32,15.40
2018,08,04,06,33,15.40
2018,08,04,06,34,15.40
2018,08,04,06,35,15.50
2018,08,04,06,36,15.50
2018,08,04,06,37,15.60
2018,08,04,06,38,15.60
2018,08,04,06,39,15.60
2018,08,04,06,40,15.60
2018,08,04,06,41,15.70
2018,08,04,06,42,15.70
2018,08,04,06,43,15.70
2018,08,04,06,44,15.80
2018,08,04,06,45,15.80
2018,08,04,06,46,15.80
2018,08,04,06,47,15.80
2018,08,04,06,48,15.80
2018,08,04,06,49,15.90
2018,08,04,06,50,15.90
2018,08,04,06,51,15.90
2018,08,04,06,52,15.90
2018,08,04,06,53,15.90
2018,08,04,06,54,16.00
2018,08,04,06,55,16.00
2018,08,04,06,56,16.10
2018,08,04,06,57,16.10
2018,08,04,06,58,16.10
2018,08,04,06,59,16.20
2018,08,04,07,00,16.20
2018,08,04,07,01,16.30
2018,08,04,07,02,16.30
2018,08,04,07,03,16.30
2018,08,04,07,04,16.40
2018,08,04,07,05,16.40
2018,08,04,07,06,16.40
2018,08,04,07,07,16.50
2018,08,04,07,08,16.60
2018,08,04,07,09,16.70
2018,08,04,07,10,16.70
2018,08,04,07,11,16.80
2018,08,04,07,12,17.00
2018,08,04,07,13,17.10
2018,08,04,07,14,17.20
2018,08,04,07,15,17.30
2018,08,04,07,16,17.40
2018,08,04,07,17,17.50
2018,08,04,07,18,17.60
2018,08,04,07,19,17.70
2018,08,04,07,20,17.80
2018,08,04,07,21,17.80
2018,08,04,07,22,17.90
2018,08,04,07,23,17.90
2018,08,04,07,24,18.00
2018,08,04,07,25,18.10
2018,08,04,07,26,18.10
2018,08,04,07,27,18.20
2018,08,04,07,28,18.30
2018,08,04,07,29,18.40
2018,08,04,07,30,18.50
2018,08,04,07,31,18.60
2018,08,04,07,32,18.70
2018,08,04,07,33,18.80
2018,08,04,07,34,18.90
2018,08,04,07,35,18.90
2018,08,04,07,36,19.00
2018,08,04,07,37,19.00
2018,08,04,07,38,18.90
2018,08,04,07,39,18.90
2018,08,04,07,40,18.80
2018,08,04,07,41,18.80
2018,08,04,07,42,18.70
2018,08,04,07,43,18.70
2018,08,04,07,44,18.70
2018,08,04,07,45,18.60
2018,08,04,07,46,18.60
2018,08,04,07,47,18.50
2018,08,04,07,48,18.50
2018,08,04,07,49,18.40
2018,08,04,07,50,18.40
2018,08,04,07,51,18.40
2018,08,04,07,52,18.40
2018,08,04,07,53,18.30
2018,08,04,07,54,18.30
2018,08,04,07,55,18.30
2018,08,04,07,56,18.30
2018,08,04,07,57,18.30
2018,08,04,07,58,18.30
2018,08,04,07,59,18.30
2018,08,04,08,00,18.30
2018,08,04,08,01,18.30
2018,08,04,08,02,18.30
2018,08,04,08,03,18.30
2018,08,04,08,04,18.30
2018,08,04,08,05,18.20
2018,08,04,08,06,18.10
2018,08,04,08,07,18.10
2018,08,04,08,08,18.00
2018,08,04,08,09,17.90
2018,08,04,08,10,18.00
2018,08,04,08,11,18.00
2018,08,04,08,12,18.10
2018,08,04,08,13,18.10
2018,08,04,08,14,18.10
2018,08,04,08,15,18.10
2018,08,04,08,16,18.10
2018,08,04,08,17,18.10
2018,08,04,08,18,18.10
2018,08,04,08,19,18.20
2018,08,04,08,20,18.20
2018,08,04,08,21,18.20
2018,08,04,08,22,18.20
2018,08,04,08,23,18.20
2018,08,04,08,24,18.30
2018,08,04,08,25,18.40
2018,08,04,08,26,18.40
2018,08,04,08,27,18.40
2018,08,04,08,28,18.50
2018,08,04,08,29,18.60
2018,08,04,08,30,18.60
2018,08,04,08,31,18.70
2018,08,04,08,32,18.70
2018,08,04,08,33,18.70
2018,08,04,08,34,18.70
2018,08,04,08,35,18.70
2018,08,04,08,36,18.70
2018,08,04,08,37,18.70
2018,08,04,08,38,18.70
2018,08,04,08,39,18.60
2018,08,04,08,40,18.60
2018,08,04,08,41,18.60
2018,08,04,08,42,18.60
2018,08,04,08,43,18.60
2018,08,04,08,44,18.60
2018,08,04,08,45,18.60
2018,08,04,08,46,18.50
2018,08,04,08,47,18.50
2018,08,04,08,48,18.50
2018,08,04,08,49,18.50
2018,08,04,08,50,18.60
2018,08,04,08,51,18.50
2018,08,04,08,52,18.50
2018,08,04,08,53,18.40
2018,08,04,08,54,18.40
2018,08,04,08,55,18.40
2018,08,04,08,56,18.40
2018,08,04,08,57,18.40
2018,08,04,08,58,18.40
2018,08,04,08,59,18.50
2018,08,04,09,00,18.50
2018,08,04,09,01,18.60
2018,08,04,09,02,18.60
2018,08,04,09,03,18.60
2018,08,04,09,04,18.60
2018,08,04,09,05,18.60
2018,08,04,09,06,18.60
2018,08,04,09,07,18.60
2018,08,04,09,08,18.60
2018,08,04,09,09,18.60
2018,08,04,09,10,18.60
2018,08,04,09,11,18.60
2018,08,04,09,12,18.70
2018,08,04,09,13,18.80
2018,08,04,09,14,18.80
2018,08,04,09,15,18.70
2018,08,04,09,16,18.70
2018,08,04,09,17,18.70
2018,08,04,09,18,18.70
2018,08,04,09,19,18.60
2018,08,04,09,20,18.60
2018,08,04,09,21,18.60
2018,08,04,09,22,18.70
2018,08,04,09,23,18.70
2018,08,04,09,24,18.70
2018,08,04,09,25,18.70
2018,08,04,09,26,18.70
2018,08,04,09,27,18.70
2018,08,04,09,28,18.70
2018,08,04,09,29,18.80
2018,08,04,09,30,18.80
2018,08,04,09,31,18.80
2018,08,04,09,32,18.70
2018,08,04,09,33,18.70
2018,08,04,09,34,18.60
2018,08,04,09,35,18.60
2018,08,04,09,36,18.60
2018,08,04,09,37,18.60
2018,08,04,09,38,18.70
2018,08,04,09,39,18.70
2018,08,04,09,40,18.70
2018,08,04,09,41,18.70
2018,08,04,09,42,18.70
2018,08,04,09,43,18.70
2018,08,04,09,44,18.60
2018,08,04,09,45,18.60
2018,08,04,09,46,18.50
2018,08,04,09,47,18.50
2018,08,04,09,48,18.40
2018,08,04,09,49,18.40
2018,08,04,09,50,18.40
2018,08,04,09,51,18.30
2018,08,04,09,52,18.30
2018,08,04,09,53,18.30
2018,08,04,09,54,18.30
2018,08,04,09,55,18.30
2018,08,04,09,56,18.30
2018,08,04,09,57,18.40
2018,08,04,09,58,18.40
2018,08,04,09,59,18.30
2018,08,04,10,00,18.30
2018,08,04,10,01,18.30
2018,08,04,10,02,18.30
2018,08,04,10,03,18.30
2018,08,04,10,04,18.20
2018,08,04,10,05,18.20
2018,08,04,10,06,18.20
2018,08,04,10,07,18.20
2018,08,04,10,08,18.10
2018,08,04,10,09,18.10
2018,08,04,10,10,18.10
2018,08,04,10,11,18.10
2018,08,04,10,12,18.10
2018,08,04,10,13,18.00
2018,08,04,10,14,18.00
2018,08,04,10,15,18.10
2018,08,04,10,16,18.00
2018,08,04,10,17,17.90
2018,08,04,10,18,17.90
2018,08,04,10,19,17.80
2018,08,04,10,20,17.70
2018,08,04,10,21,17.60
2018,08,04,10,22,17.60
2018,08,04,10,23,17.60
2018,08,04,10,24,17.60
2018,08,04,10,25,17.70
2018,08,04,10,26,17.80
2018,08,04,10,27,17.80
2018,08,04,10,28,17.80
2018,08,04,10,29,17.80
2018,08,04,10,30,17.80
2018,08,04,10,31,17.80
2018,08,04,10,32,17.80
2018,08,04,10,33,17.80
2018,08,04,10,34,17.90
2018,08,04,10,35,17.90
2018,08,04,10,36,17.90
2018,08,04,10,37,17.90
2018,08,04,10,38,17.90
2018,08,04,10,39,17.90
2018,08,04,10,40,17.90
2018,08,04,10,41,17.90
2018,08,04,10,42,17.90
2018,08,04,10,43,18.00
2018,08,04,10,44,18.10
2018,08,04,10,45,18.10
2018,08,04,10,46,18.10
2018,08,04,10,47,18.10
2018,08,04,10,48,18.10
2018,08,04,10,49,18.10
2018,08,04,10,50,18.10
2018,08,04,10,51,18.10
2018,08,04,10,52,18.00
2018,08,04,10,53,18.00
2018,08,04,10,54,17.90
2018,08,04,10,55,17.90
2018,08,04,10,56,18.00
2018,08,04,10,57,18.00
2018,08,04,10,58,18.00
2018,08,04,10,59,18.00
2018,08,04,11,00,18.00
2018,08,04,11,01,18.10
2018,08,04,11,02,18.10
2018,08,04,11,03,18.20
2018,08,04,11,04,18.20
2018,08,04,11,05,18.20
2018,08,04,11,06,18.30
2018,08,04,11,07,18.40
2018,08,04,11,08,18.50
2018,08,04,11,09,18.50
2018,08,04,11,10,18.40
2018,08,04,11,11,18.40
2018,08,04,11,12,18.30
2018,08,04,11,13,18.40
2018,08,04,11,14,18.40
2018,08,04,11,15,18.50
2018,08,04,11,16,18.50
2018,08,04,11,17,18.60
2018,08,04,11,18,18.70
2018,08,04,11,19,18.60
2018,08,04,11,20,18.70
2018,08,04,11,21,18.70
2018,08,04,11,22,18.70
2018,08,04,11,23,18.70
2018,08,04,11,24,18.70
2018,08,04,11,25,18.60
2018,08,04,11,26,18.60
2018,08,04,11,27,18.60
2018,08,04,11,28,18.60
2018,08,04,11,29,18.70
2018,08,04,11,30,18.60
2018,08,04,11,31,18.60
2018,08,04,11,32,18.60
2018,08,04,11,33,18.70
2018,08,04,11,34,18.70
2018,08,04,11,35,18.70
2018,08,04,11,36,18.60
2018,08,04,11,37,18.40
2018,08,04,11,38,18.40
2018,08,04,11,39,18.30
2018,08,04,11,40,18.30
2018,08,04,11,41,18.20
2018,08,04,11,42,18.20
2018,08,04,11,43,18.30
2018,08,04,11,44,18.30
2018,08,04,11,45,18.30
2018,08,04,11,46,18.40
2018,08,04,11,47,18.50
2018,08,04,11,48,18.50
2018,08,04,11,49,18.50
2018,08,04,11,50,18.60
2018,08,04,11,51,18.70
2018,08,04,11,52,18.80
2018,08,04,11,53,18.80
2018,08,04,11,54,18.80
2018,08,04,11,55,18.80
2018,08,04,11,56,18.80
2018,08,04,11,57,18.80
2018,08,04,11,58,18.80
2018,08,04,11,59,18.80
2018,08,04,12,00,18.80
2018,08,04,12,01,18.70
2018,08,04,12,02,18.70
2018,08,04,12,03,18.70
2018,08,04,12,04,18.70
2018,08,04,12,05,18.70
2018,08,04,12,06,18.70
2018,08,04,12,07,18.70
2018,08,04,12,08,18.70
2018,08,04,12,09,18.70
2018,08,04,12,10,18.70
2018,08,04,12,11,18.70
2018,08,04,12,12,18.80
2018,08,04,12,13,18.80
2018,08,04,12,14,18.80
2018,08,04,12,15,18.90
2018,08,04,12,16,18.90
2018,08,04,12,17,18.90
2018,08,04,12,18,18.90
2018,08,04,12,19,18.90
2018,08,04,12,20,18.90
2018,08,04,12,21,18.90
2018,08,04,12,22,18.90
2018,08,04,12,23,18.90
2018,08,04,12,24,18.90
2018,08,04,12,25,18.80
2018,08,04,12,26,18.80
2018,08,04,12,27,18.80
2018,08,04,12,28,18.80
2018,08,04,12,29,18.80
2018,08,04,12,30,18.80
2018,08,04,12,31,18.80
2018,08,04,12,32,18.80
2018,08,04,12,33,18.90
2018,08,04,12,34,18.90
2018,08,04,12,35,18.90
2018,08,04,12,36,18.90
2018,08,04,12,37,19.00
2018,08,04,12,38,19.10
2018,08,04,12,39,19.10
2018,08,04,12,40,19.20
2018,08,04,12,41,19.20
2018,08,04,12,42,19.20
2018,08,04,12,43,19.20
2018,08,04,12,44,19.30
2018,08,04,12,45,19.30
2018,08,04,12,46,19.40
2018,08,04,12,47,19.40
2018,08,04,12,48,19.40
2018,08,04,12,49,19.40
2018,08,04,12,50,19.40
2018,08,04,12,51,19.40
2018,08,04,12,52,19.40
2018,08,04,12,53,19.40
2018,08,04,12,54,19.40
2018,08,04,12,55,19.50
2018,08,04,12,56,19.60
2018,08,04,12,57,19.60
2018,08,04,12,58,19.60
2018,08,04,12,59,19.70
2018,08,04,13,00,19.70
2018,08,04,13,01,19.80
2018,08,04,13,02,19.80
2018,08,04,13,03,19.90
2018,08,04,13,04,19.90
2018,08,04,13,05,20.00
2018,08,04,13,06,20.00
2018,08,04,13,07,20.10
2018,08,04,13,08,20.20
2018,08,04,13,09,20.20
2018,08,04,13,10,20.20
2018,08,04,13,11,20.30
2018,08,04,13,12,20.30
2018,08,04,13,13,20.20
2018,08,04,13,14,20.30
2018,08,04,13,15,20.30
2018,08,04,13,16,20.30
2018,08,04,13,17,20.40
2018,08,04,13,18,20.40
2018,08,04,13,19,20.40
2018,08,04,13,20,20.50
2018,08,04,13,21,20.50
2018,08,04,13,22,20.60
2018,08,04,13,23,20.60
2018,08,04,13,24,20.60
2018,08,04,13,25,20.60
2018,08,04,13,26,20.60
2018,08,04,13,27,20.60
2018,08,04,13,28,20.70
2018,08,04,13,29,20.70
2018,08,04,13,30,20.70
2018,08,04,13,31,20.70
2018,08,04,13,32,20.70
2018,08,04,13,33,20.80
2018,08,04,13,34,20.80
2018,08,04,13,35,20.80
2018,08,04,13,36,20.90
2018,08,04,13,37,21.10
2018,08,04,13,38,21.20
2018,08,04,13,39,21.30
2018,08,04,13,40,21.30
2018,08,04,13,41,21.30
2018,08,04,13,42,21.30
2018,08,04,13,43,21.30
2018,08,04,13,44,21.30
2018,08,04,13,45,21.40
2018,08,04,13,46,21.40
2018,08,04,13,47,21.50
2018,08,04,13,48,21.40
2018,08,04,13,49,21.40
2018,08,04,13,50,21.40
2018,08,04,13,51,21.40
2018,08,04,13,52,21.40
2018,08,04,13,53,21.40
2018,08,04,13,54,21.40
2018,08,04,13,55,21.40
2018,08,04,13,56,21.40
2018,08,04,13,57,21.40
2018,08,04,13,58,21.40
2018,08,04,13,59,21.40
2018,08,04,14,00,21.40
2018,08,04,14,01,21.40
2018,08,04,14,02,21.50
2018,08,04,14,03,21.50
2018,08,04,14,04,21.60
2018,08,04,14,05,21.60
2018,08,04,14,06,21.60
2018,08,04,14,07,21.80
2018,08,04,14,08,21.80
2018,08,04,14,09,21.90
2018,08,04,14,10,22.00
2018,08,04,14,11,22.10
2018,08,04,14,12,22.10
2018,08,04,14,13,22.20
2018,08,04,14,14,22.20
2018,08,04,14,15,22.20
2018,08,04,14,16,22.20
2018,08,04,14,17,22.20
2018,08,04,14,18,22.10
2018,08,04,14,19,22.10
2018,08,04,14,20,22.00
2018,08,04,14,21,22.00
2018,08,04,14,22,22.00
2018,08,04,14,23,22.00
2018,08,04,14,24,22.00
2018,08,04,14,25,22.10
2018,08,04,14,26,22.20
2018,08,04,14,27,22.30
2018,08,04,14,28,22.30
2018,08,04,14,29,22.20
2018,08,04,14,30,22.20
2018,08,04,14,31,22.10
2018,08,04,14,32,22.10
2018,08,04,14,33,22.10
2018,08,04,14,34,22.10
2018,08,04,14,35,22.20
2018,08,04,14,36,22.30
2018,08,04,14,37,22.30
2018,08,04,14,38,22.40
2018,08,04,14,39,22.40
2018,08,04,14,40,22.50
2018,08,04,14,41,22.60
2018,08,04,14,42,22.70
2018,08,04,14,43,22.80
2018,08,04,14,44,22.80
2018,08,04,14,45,22.70
2018,08,04,14,46,22.70
2018,08,04,14,47,22.70
2018,08,04,14,48,22.70
2018,08,04,14,49,22.60
2018,08,04,14,50,22.60
2018,08,04,14,51,22.70
2018,08,04,14,52,22.60
2018,08,04,14,53,22.60
2018,08,04,14,54,22.50
2018,08,04,14,55,22.40
2018,08,04,14,56,22.40
2018,08,04,14,57,22.40
2018,08,04,14,58,22.40
2018,08,04,14,59,22.40
2018,08,04,15,00,22.50
2018,08,04,15,01,22.60
2018,08,04,15,02,22.70
2018,08,04,15,03,22.70
2018,08,04,15,04,22.80
2018,08,04,15,05,22.80
2018,08,04,15,06,22.80
2018,08,04,15,07,22.80
2018,08,04,15,08,22.70
2018,08,04,15,09,22.70
2018,08,04,15,10,22.70
2018,08,04,15,11,22.70
2018,08,04,15,12,22.70
2018,08,04,15,13,22.80
2018,08,04,15,14,22.90
2018,08,04,15,15,22.90
2018,08,04,15,16,22.90
2018,08,04,15,17,22.90
2018,08,04,15,18,22.90
2018,08,04,15,19,22.90
2018,08,04,15,20,22.90
2018,08,04,15,21,22.90
2018,08,04,15,22,23.00
2018,08,04,15,23,23.00
2018,08,04,15,24,23.10
2018,08,04,15,25,23.10
2018,08,04,15,26,23.10
2018,08,04,15,27,23.10
2018,08,04,15,28,23.20
2018,08,04,15,29,23.30
2018,08,04,15,30,23.40
2018,08,04,15,31,23.40
2018,08,04,15,32,23.50
2018,08,04,15,33,23.50
2018,08,04,15,34,23.40
2018,08,04,15,35,23.40
2018,08,04,15,36,23.30
2018,08,04,15,37,23.30
2018,08,04,15,38,23.30
2018,08,04,15,39,23.30
2018,08,04,15,40,23.30
2018,08,04,15,41,23.20
2018,08,04,15,42,23.20
2018,08,04,15,43,23.30
2018,08,04,15,44,23.20
2018,08,04,15,45,23.20
2018,08,04,15,46,23.20
2018,08,04,15,47,23.20
2018,08,04,15,48,23.30
2018,08,04,15,49,23.30
2018,08,04,15,50,23.40
2018,08,04,15,51,23.40
2018,08,04,15,52,23.40
2018,08,04,15,53,23.40
2018,08,04,15,54,23.40
2018,08,04,15,55,23.50
2018,08,04,15,56,23.60
2018,08,04,15,57,23.60
2018,08,04,15,58,23.60
2018,08,04,15,59,23.50
2018,08,04,16,00,23.50
2018,08,04,16,01,23.50
2018,08,04,16,02,23.40
2018,08,04,16,03,23.40
2018,08,04,16,04,23.40
2018,08,04,16,05,23.40
2018,08,04,16,06,23.40
2018,08,04,16,07,23.40
2018,08,04,16,08,23.40
2018,08,04,16,09,23.40
2018,08,04,16,10,23.40
2018,08,04,16,11,23.40
2018,08,04,16,12,23.50
2018,08,04,16,13,23.50
2018,08,04,16,14,23.60
2018,08,04,16,15,23.60
2018,08,04,16,16,23.70
2018,08,04,16,17,23.70
2018,08,04,16,18,23.70
2018,08,04,16,19,23.70
2018,08,04,16,20,23.80
2018,08,04,16,21,23.80
2018,08,04,16,22,23.70
2018,08,04,16,23,23.70
2018,08,04,16,24,23.70
2018,08,04,16,25,23.70
2018,08,04,16,26,23.70
2018,08,04,16,27,23.70
2018,08,04,16,28,23.70
2018,08,04,16,29,23.80
2018,08,04,16,30,23.80
2018,08,04,16,31,23.80
2018,08,04,16,32,23.90
2018,08,04,16,33,23.90
2018,08,04,16,34,23.90
2018,08,04,16,35,23.90
2018,08,04,16,36,23.90
2018,08,04,16,37,23.90
2018,08,04,16,38,23.90
2018,08,04,16,39,24.00
2018,08,04,16,40,24.00
2018,08,04,16,41,24.00
2018,08,04,16,42,23.90
2018,08,04,16,43,23.90
2018,08,04,16,44,23.90
2018,08,04,16,45,23.90
2018,08,04,16,46,23.80
2018,08,04,16,47,23.90
2018,08,04,16,48,23.80
2018,08,04,16,49,23.90
2018,08,04,16,50,23.90
2018,08,04,16,51,24.00
2018,08,04,16,52,24.00
2018,08,04,16,53,24.00
2018,08,04,16,54,23.90
2018,08,04,16,55,23.90
2018,08,04,16,56,23.80
2018,08,04,16,57,23.80
2018,08,04,16,58,23.80
2018,08,04,16,59,23.80
2018,08,04,17,00,23.80
2018,08,04,17,01,23.80
2018,08,04,17,02,23.80
2018,08,04,17,03,23.80
2018,08,04,17,04,23.90
2018,08,04,17,05,23.80
2018,08,04,17,06,23.80
2018,08,04,17,07,23.80
2018,08,04,17,08,23.80
2018,08,04,17,09,23.80
2018,08,04,17,10,23.80
2018,08,04,17,11,23.80
2018,08,04,17,12,23.90
2018,08,04,17,13,23.90
2018,08,04,17,14,23.90
2018,08,04,17,15,23.90
2018,08,04,17,16,24.00
2018,08,04,17,17,24.10
2018,08,04,17,18,24.10
2018,08,04,17,19,24.20